Regional Weather Roundup
Issued by NWS Sioux Falls, SD

Home | Current Version | Previous Version | Text Only | Print | Product List | Glossary Off
Versions: 1 2 3 4 5 6 7 8 9 10 11 12 13 14 15 16 17 18 19 20 21 22 23 24 25 26 27 28 29 30 31 32 33 34 35 36 37 38 39 40 41 42 43 44 45 46 47 48 49 50

000
ASUS43 KFSD 210102
RWRFSD

WEATHER ROUNDUP FOR SE SOUTH DAKOTA/SW MINNESOTA/NW IOWA
NATIONAL WEATHER SERVICE SIOUX FALLS SD
800 PM CDT FRI OCT 20 2017

NOTE: "FAIR" INDICATES FEW OR NO CLOUDS BELOW 12,000 FEET WITH NO
SIGNIFICANT WEATHER AND OR OBSTRUCTIONS TO VISIBILITY.


SDZ038>040-050-052>070-210200-
SOUTHEAST SOUTH DAKOTA

CITY           SKY/WX    TMP DP  RH WIND       PRES   REMARKS
BROOKINGS      MOCLDY    69  57  65 S26G33    29.55F
CHAMBERLAIN    CLEAR     69  55  62 S10       29.44R
HURON          PTCLDY    70  56  61 SE13G21   29.45F
MADISON        CLOUDY    68  57  68 S22G29    29.56S
MITCHELL       CLOUDY    72  57  59 S20       29.49F
SIOUX FALLS    CLOUDY    71  59  65 S18G28    29.58F
WINNER         FAIR      68  53  58 S12       29.43S
YANKTON        CLEAR     72  59  63 S17G28    29.56R
$$

MNZ071-072-080-081-089-090-097-098-210200-
SOUTHWEST MINNESOTA

CITY           SKY/WX    TMP DP  RH WIND       PRES   REMARKS
FAIRMONT       CLEAR     66  51  58 S15       29.72S
JACKSON        CLEAR     66  52  59 S16G24    29.71R
MARSHALL       PTCLDY    70  56  61 S23G31    29.59R
MONTEVIDEO     PTCLDY    70  54  56 SW13G18   29.59R
PIPESTONE      CLOUDY    68  55  64 S17       29.62S
REDWOOD FALLS  CLEAR     69  52  54 S22       29.63R
TRACY          CLEAR     69  57  65 S15G23    29.62S
WORTHINGTON    CLEAR     68  56  65 S18G24    29.65F
$$

IAZ001>003-012>014-020>022-031-032-NEZ013-014-SDZ071-210200-
NORTHWEST IOWA

CITY           SKY/WX    TMP DP  RH WIND       PRES   REMARKS
CHEROKEE       CLEAR     68  57  67 S20G25    29.68S
DENISON        CLOUDY    68  57  68 S20G26    29.74S
ESTHERVILLE    CLEAR     66  53  63 S21G29    29.71F
LE MARS        CLEAR     70  59  68 S22G30    29.62S
ORANGE CITY    CLEAR     70  61  73 S20G28    29.65R
SHELDON        PTCLDY    68  57  68 S20G29    29.64R
SIOUX CITY     CLEAR     70  59  68 S17G25    29.64S
SPENCER        CLOUDY    69  55  60 S25G32    29.69F
STORM LAKE     PTCLDY    68  55  64 S20G31    29.71F
$$

ABBREVIATIONS USED IN REMARKS
   TC - TEMPERATURE IN CELSIUS
  WCI - WIND CHILL INDEX
   HX - HEAT INDEX
  VSB - VISIBILITY





USA.gov is the U.S. government's official web portal to all federal, state and local government web resources and services.